Content
SEND FEEDBACK

Daily
Averages
Monthly
Summary
United States of America

BOSTON, MASSACHUSETTS


Home > North America > United States > Massachusetts
Elevation: 1 meter     Latitude: 42 22N     Longitude: 071 02W

WEATHER
 
SELECT A DAY
Number of Records: 205,344;   Date Range: 1/1/95 - 10/21/14
 
SHARE

PRINT THIS DATA

[ ← Previous Day ]
WEATHER ALMANAC - 24 JUNE, 2013
[ Next Day → ]
[ °F ]   °C
Weather ElementAverageHighLow
Temperature27.4 °C35 °C (2:54 pm)22 °C (9:06 pm)
Dewpoint19.8 °C21 °C (7:46 pm)18 °C (8:09 pm)
Humidity65.6 %88 % (9:06 pm)40 % (2:54 pm)
Barometer1013.9 hPa1016.3 hPa (1:54 am)1011.5 hPa (4:54 pm)
Wind Speed17.9 km/h33.3 km/h (7:54 pm)
Wind Gust46.3 km/h (8:09 pm)
Weather ElementAverage
Visibility15 km
Wind DirectionWSW (233 °)

Weather ElementTotal
Precipitation10.41 mm
Cooling Degree Days10.2 (Base 18.3)
Growing Degree Days18.5 (Base 10)
Averaged from 27 records on 24 June, 2013
WEATHER CONDITIONS BREAKOUT
WIND DIRECTION BREAKOUT
WEATHER BY HOUR - 24 JUNE, 2013
[ °F ]   °C
Local TimeTemperatureDewpointHumidityBarometerVisibilityWind DirectionWind SpeedGust SpeedPrecipitationEventsConditions
1:54 AM23.9 °C19.4 °C76 %1016.3 hPa16.1 kmWSW (240°)27.8 km/h37 km/hMostly Cloudy
2:54 AM23.3 °C19.4 °C79 %1015.9 hPa16.1 kmWSW (240°)22.2 km/hScattered Clouds
3:54 AM22.2 °C20 °C87 %1015.9 hPa16.1 kmSW (220°)14.8 km/hMostly Cloudy
4:54 AM22.2 °C20 °C87 %1015.2 hPa16.1 kmWSW (250°)16.7 km/hScattered Clouds
5:54 AM22.2 °C20 °C87 %1014.9 hPa16.1 kmSW (230°)16.7 km/hScattered Clouds
6:54 AM23.3 °C20 °C82 %1015.2 hPa16.1 kmSW (230°)16.7 km/hScattered Clouds
7:54 AM25.6 °C20.6 °C74 %1015.2 hPa16.1 kmWSW (240°)22.2 km/hScattered Clouds
8:54 AM27.8 °C20.6 °C65 %1014.9 hPa16.1 kmWest (280°)14.8 km/hPartly Cloudy
9:54 AM29.4 °C20.6 °C59 %1014.6 hPa16.1 kmWest (270°)18.5 km/hClear
10:54 AM31.1 °C20 °C51 %1014.2 hPa16.1 kmWest (260°)20.4 km/hClear
11:54 AM32.2 °C20.6 °C50 %1013.9 hPa16.1 kmWest (270°)16.7 km/h37 km/hPartly Cloudy
12:54 PM33.3 °C20.6 °C47 %1013.5 hPa16.1 kmWest (270°)16.7 km/hPartly Cloudy
1:54 PM33.9 °C18.9 °C41 %1013.2 hPa16.1 kmWest (280°)20.4 km/h38.9 km/hScattered Clouds
2:54 PM35 °C19.4 °C40 %1012.9 hPa16.1 kmWest (280°)16.7 km/h31.5 km/hScattered Clouds
3:54 PM34.4 °C18.9 °C40 %1011.9 hPa16.1 kmWest (260°)18.5 km/hScattered Clouds
4:54 PM33.9 °C19.4 °C42 %1011.5 hPa16.1 kmWest (260°)18.5 km/h33.3 km/hScattered Clouds
5:54 PM33.3 °C20 °C45 %1011.5 hPa16.1 kmWest (260°)22.2 km/hScattered Clouds
6:54 PM32.2 °C20 °C48 %1011.9 hPa16.1 kmWSW (240°)18.5 km/hMostly Cloudy
7:46 PM31 °C21 °C55 %1012.2 hPa16.1 kmWest (260°)20.4 km/h31.5 km/hThunderstormMostly Cloudy
7:54 PM27.8 °C18.9 °C58 %1012.9 hPa16.1 kmNorth (360°)33.3 km/h44.4 km/hThunderstormMostly Cloudy
8:09 PM26 °C18 °C61 %1013.2 hPa16.1 kmNorth (360°)29.6 km/h46.3 km/hThunderstormOvercast
8:54 PM22.2 °C20 °C87 %1013.9 hPa3.2 kmNNE (20°)16.7 km/h5.59 mmRain-ThunderstormHeavy Thunderstorms and Rain
9:06 PM22 °C20 °C88 %1014.2 hPa9.7 kmVariable5.6 km/h1.02 mmRain-ThunderstormLight Thunderstorms and Rain
9:54 PM22.8 °C20.6 °C87 %1015.2 hPa11.3 kmSW (230°)13 km/h1.78 mmRain-ThunderstormLight Rain
10:37 PM24 °C19 °C73 %1014.2 hPa11.3 kmCalm1.02 mmRainLight Rain
10:54 PM23.3 °C19.4 °C79 %1013.9 hPa16.1 kmWSW (250°)9.3 km/h1.02 mmRainLight Rain
11:54 PM22.8 °C20 °C84 %1012.9 hPa16.1 kmSW (230°)13 km/h0 mmScattered Clouds
Hourly data recorded from KBOS, located 0 kilometers away from Boston, Massachusetts







STORIES FROM OUR PARTNERS